{"data":{"norad_id":60521,"intl_designator":"2024-149BF","name":"TRANSPORTER-11 OBJECT BF","alt_names":[],"object_type":"PAYLOAD","status":"ACTIVE","operator":null,"country":"TBD","launch_date":"2024-08-16","launch_site_code":"AFWTR","launch_vehicle":null,"mission":null,"orbit_class":"UNKNOWN","rcs_meters":null,"size_class":null,"mass_kg":null,"dimensions":null,"purposes":[],"wikipedia_slug":null,"has_3d_model":false,"image_url":null,"decayed_at":null,"tle_current":{"epoch":"2026-05-25T04:48:38.822112Z","epoch_age_seconds":51734,"freshness":"FRESH","line1":"1 60521U 24149BF  26145.20044933  .00151040  00000+0  98875-3 0  9997","line2":"2 60521  97.3776 239.5318 0002441 262.4698  97.6290 15.75349872 99455","mean_motion":15.75349872,"eccentricity":0.0002441,"inclination_deg":97.3776,"raan_deg":239.5318,"arg_perigee_deg":262.4698,"mean_anomaly_deg":97.629,"bstar":0.00098875,"rev_number":9945,"period_min":91.408265909327,"perigee_km":341.99497952684,"apogee_km":345.27654899035,"semimajor_km":6721.7727642586,"source":"CELESTRAK","updated_at":"2026-05-25T13:38:02.123784Z"}}}